CW5521 Weather Reports


time (UTC)temp
C
wind
direction
speed
KPH
gust
KPH
rain 1hr
cm
rain 24hr
cm
rain mn
cm
humidity
%
barometer
mb
20260504081817 12 197 0.0 0.0 0.00 0.00 0.00 71 1005.4
20260504080801 13 197 0.0 0.0 0.00 0.00 0.00 70 1005.4
20260504070409 12 211 0.0 0.0 0.00 0.00 0.00 72 1005.9
20260504050017 14 211 0.0 0.0 0.00 0.00 0.00 67 1007.2
20260504045008 14 211 0.0 0.0 0.00 0.00 0.00 67 1007.2
20260504043950 14 211 0.0 0.0 0.00 0.00 0.00 67 1007.2
20260504043009 14 211 0.0 0.0 0.00 0.00 0.00 67 1007.3
20260504042013 15 211 0.0 0.0 0.00 0.00 0.00 67 1007.3
20260504041021 15 211 0.0 0.0 0.00 0.00 0.00 67 1007.3
20260504040001 15 211 0.0 0.0 0.00 0.00 0.00 67 1007.4
20260504035000 15 211 0.0 0.0 0.00 0.00 0.00 66 1007.4
20260504033932 15 210 0.0 0.0 0.00 0.00 0.00 65 1007.5
20260504032903 15 207 0.0 0.0 0.00 0.00 0.00 65 1007.5
20260504031912 15 215 0.0 0.0 0.00 0.00 0.00 65 1007.6
20260504025745 15 212 0.0 0.0 0.00 0.00 0.00 64 1007.6
20260504023616 16 213 0.0 0.0 0.00 0.00 0.00 63 1007.6
20260504022631 16 215 0.0 0.0 0.00 0.00 0.00 63 1007.6
20260504021554 16 215 0.0 0.0 0.00 0.00 0.00 62 1007.6
20260504020555 16 215 0.0 0.0 0.00 0.00 0.00 62 1007.5
20260504015553 16 215 0.0 0.0 0.00 0.00 0.00 61 1007.5
20260504013442 17 212 0.0 0.0 0.00 0.00 0.00 59 1007.4
20260504012415 17 201 0.0 0.0 0.00 0.00 0.00 58 1007.4
20260504011345 17 214 0.0 0.0 0.00 0.00 0.00 58 1007.2
20260504010347 17 222 0.0 0.0 0.00 0.00 0.00 57 1007.1
20260504005341 18 227 0.0 0.0 0.00 0.00 0.00 56 1007.1
20260504003209 18 220 0.0 0.0 0.00 0.00 0.00 53 1007.2
20260504002229 18 222 0.0 0.0 0.00 0.00 0.00 52 1007.1
20260504001208 19 205 0.0 0.0 0.00 0.00 0.00 52 1007.1
20260504000227 19 225 0.0 0.0 0.00 0.00 0.00 53 1007.2
20260503235235 19 227 0.0 0.0 0.00 0.00 0.00 51 1007.3
20260503234230 19 229 0.0 0.0 0.00 0.00 0.00 52 1007.3
20260503233157 20 225 0.0 0.0 0.00 0.00 0.00 51 1007.4
20260503232156 20 232 0.0 0.0 0.00 0.00 0.00 51 1007.3
20260503231215 19 292 0.0 0.0 0.00 0.00 0.00 51 1007.3
20260503225101 20 228 0.0 0.0 0.00 0.00 0.00 50 1007.5
20260503224116 19 257 0.0 0.0 0.00 0.00 0.00 51 1007.5
20260503223134 19 261 0.0 0.0 0.00 0.00 0.00 50 1007.5
20260503222113 19 288 0.0 0.0 0.00 0.00 0.00 50 1007.6
20260503221116 19 302 0.0 0.0 0.00 0.00 0.00 50 1007.8
20260503220051 19 304 0.0 0.0 0.00 0.00 0.00 50 1007.7
20260503215057 19 301 0.0 0.0 0.00 0.00 0.00 51 1007.8
20260503214023 19 238 0.0 0.0 0.00 0.00 0.00 51 1007.9
20260503213013 18 277 0.0 0.0 0.00 0.00 0.00 50 1008.0
20260503212028 18 246 0.0 0.0 0.00 0.00 0.00 49 1008.0
20260503211045 18 256 0.0 0.0 0.00 0.00 0.00 49 1007.9
20260503210105 18 235 0.0 0.0 0.00 0.00 0.00 49 1008.1
20260503205125 18 246 0.0 0.0 0.00 0.00 0.00 48 1008.1
20260503202930 18 213 0.0 0.0 0.00 0.00 0.00 47 1008.3
20260503195613 19 210 0.0 0.0 0.00 0.00 0.00 45 1008.8
20260503194636 18 241 0.0 0.0 0.00 0.00 0.00 46 1008.6
20260503193620 18 221 0.0 0.0 0.00 0.00 0.00 45 1009.0
20260503192637 18 269 0.0 0.0 0.00 0.00 0.00 43 1009.0
20260503191636 19 223 0.0 0.0 0.00 0.00 0.00 44 1009.2
20260503190635 18 286 0.0 0.0 0.00 0.00 0.00 45 1009.1
20260503185609 18 194 0.0 0.0 0.00 0.00 0.00 44 1009.1
20260503184624 18 228 0.0 0.0 0.00 0.00 0.00 44 1009.2
20260503183600 18 207 0.0 0.0 0.00 0.00 0.00 44 1009.6
20260503182557 18 267 0.0 0.0 0.00 0.00 0.00 44 1009.8
20260503181617 17 161 0.0 0.0 0.00 0.00 0.00 46 1009.8
20260503180607 17 203 0.0 0.0 0.00 0.00 0.00 46 1009.9
20260503175546 16 212 0.0 0.0 0.00 0.00 0.00 47 1010.1
20260503174603 16 167 0.0 0.0 0.00 0.00 0.00 48 1010.2
20260503173548 17 215 0.0 0.0 0.00 0.00 0.00 51 1010.7
20260503172527 15 193 0.0 0.0 0.00 0.00 0.00 51 1011.1
20260503171537 15 197 0.0 0.0 0.00 0.00 0.00 51 1011.5
20260503150316 12 198 0.0 0.0 0.00 0.00 0.00 58 1014.4
20260503131244 10 176 0.0 0.0 0.00 0.00 0.00 62 1015.7
20260503130245 9 235 0.0 0.0 0.00 0.00 0.00 64 1015.9